RYR7XG EPKK-LIRA

Flight info

Callsign RYR7XG
Flight time 1h 41m
Altitude 38000
Route BABKO DCT VADEX DCT KOPAT DCT BABNI DCT MAREG DCT GIRDA DCT BAXON/N0447F390 DCT UNUMU DCT IPGOR/N0355F190 Y106 GITOD
Aircraft B38M/M-SDE1FGHILORVWXY/HB1

Departure

Time 2026-05-06 17:08
Airport Kraków John Paul II International Airport (EPKK)

Arrival

Time 2026-05-06 18:49
Airport Ciampino–G. B. Pastine International Airport (LIRA)
Time Latitude Longitude Altitude Speed Heading
2026-05-06 16:42 50.07340 19.80055 791 ft 0 kts 168°
2026-05-06 16:56 50.07356 19.80050 791 ft 4 kts 167°
2026-05-06 16:56 50.07383 19.80041 791 ft 4 kts 171°
2026-05-06 16:56 50.07399 19.80041 791 ft 2 kts 216°
2026-05-06 16:56 50.07405 19.80055 791 ft 2 kts 254°
2026-05-06 16:57 50.07407 19.80067 791 ft 0 kts 258°
2026-05-06 17:00 50.07405 19.80051 791 ft 3 kts 258°
2026-05-06 17:00 50.07401 19.80011 791 ft 5 kts 269°
2026-05-06 17:01 50.07421 19.79967 791 ft 6 kts 334°
2026-05-06 17:01 50.07469 19.79949 791 ft 8 kts 348°
2026-05-06 17:01 50.07513 19.79993 791 ft 9 kts 69°
2026-05-06 17:01 50.07527 19.80099 791 ft 11 kts 78°
2026-05-06 17:02 50.07545 19.80226 791 ft 13 kts 78°
2026-05-06 17:02 50.07565 19.80369 791 ft 12 kts 76°
2026-05-06 17:02 50.07626 19.80410 791 ft 11 kts 348°
2026-05-06 17:02 50.07704 19.80385 791 ft 12 kts 348°
2026-05-06 17:03 50.07789 19.80355 791 ft 13 kts 347°
2026-05-06 17:03 50.07834 19.80340 791 ft 0 kts 347°
2026-05-06 17:06 50.07840 19.80338 791 ft 2 kts 347°
2026-05-06 17:06 50.07863 19.80330 791 ft 5 kts 347°
2026-05-06 17:07 50.07903 19.80316 791 ft 7 kts 347°
2026-05-06 17:07 50.07961 19.80295 790 ft 10 kts 347°
2026-05-06 17:07 50.08016 19.80244 790 ft 9 kts 283°
2026-05-06 17:07 50.07992 19.80043 791 ft 47 kts 258°
2026-05-06 17:08 50.07866 19.79137 791 ft 121 kts 257°
2026-05-06 17:08 50.07645 19.77561 908 ft 166 kts 257°
2026-05-06 17:08 50.07395 19.75767 1618 ft 172 kts 258°
2026-05-06 17:08 50.07170 19.73985 2595 ft 165 kts 255°
2026-05-06 17:09 50.06920 19.72177 3315 ft 178 kts 252°
2026-05-06 17:09 50.06507 19.70253 3841 ft 200 kts 235°
2026-05-06 17:09 50.05427 19.68716 4355 ft 224 kts 206°
2026-05-06 17:09 50.03901 19.68003 5171 ft 239 kts 195°
2026-05-06 17:10 50.02249 19.67263 6039 ft 252 kts 199°
2026-05-06 17:10 50.00578 19.66445 7096 ft 253 kts 198°
2026-05-06 17:10 49.98872 19.65604 8072 ft 260 kts 199°
2026-05-06 17:10 49.97129 19.64739 9042 ft 265 kts 199°
2026-05-06 17:11 49.95353 19.63854 9955 ft 271 kts 199°
2026-05-06 17:11 49.93507 19.62933 10583 ft 288 kts 199°
2026-05-06 17:11 49.91539 19.61947 11136 ft 304 kts 199°
2026-05-06 17:11 49.89479 19.60915 11826 ft 314 kts 199°
2026-05-06 17:12 49.87423 19.59892 12749 ft 316 kts 199°
2026-05-06 17:12 49.85312 19.58844 13589 ft 321 kts 198°
2026-05-06 17:12 49.83167 19.57783 14368 ft 325 kts 198°
2026-05-06 17:12 49.80996 19.56708 15111 ft 329 kts 198°
2026-05-06 17:13 49.78805 19.55626 15864 ft 332 kts 198°
2026-05-06 17:13 49.76591 19.54532 16590 ft 336 kts 197°
2026-05-06 17:13 49.74349 19.53427 17293 ft 340 kts 197°
2026-05-06 17:13 49.72105 19.52320 17943 ft 344 kts 197°
2026-05-06 17:14 49.69779 19.51175 18560 ft 348 kts 197°
2026-05-06 17:14 49.67465 19.50037 19130 ft 351 kts 198°
2026-05-06 17:14 49.65153 19.48903 19705 ft 354 kts 198°
2026-05-06 17:14 49.62795 19.47732 20233 ft 359 kts 200°
2026-05-06 17:15 49.60550 19.46007 20753 ft 361 kts 219°
2026-05-06 17:15 49.58851 19.43162 21384 ft 363 kts 231°
2026-05-06 17:15 49.57189 19.40200 21836 ft 368 kts 225°
2026-05-06 17:15 49.55389 19.37375 22460 ft 370 kts 226°
2026-05-06 17:16 49.53598 19.34501 22987 ft 374 kts 228°
2026-05-06 17:16 49.51931 19.31403 23506 ft 377 kts 231°
2026-05-06 17:16 49.50293 19.28305 24005 ft 379 kts 231°
2026-05-06 17:16 49.48607 19.25158 24495 ft 381 kts 230°
2026-05-06 17:17 49.46908 19.22015 24993 ft 383 kts 230°
2026-05-06 17:17 49.45195 19.18865 25474 ft 386 kts 230°
2026-05-06 17:17 49.43462 19.15685 25914 ft 389 kts 230°
2026-05-06 17:17 49.41718 19.12489 26364 ft 391 kts 230°
2026-05-06 17:18 49.39977 19.09302 26810 ft 394 kts 230°
2026-05-06 17:18 49.38207 19.06067 27243 ft 397 kts 230°
2026-05-06 17:18 49.36422 19.02808 27673 ft 400 kts 230°
2026-05-06 17:18 49.34624 18.99529 28086 ft 403 kts 230°
2026-05-06 17:19 49.32814 18.96232 28506 ft 405 kts 230°
2026-05-06 17:19 49.30989 18.92912 28910 ft 408 kts 230°
2026-05-06 17:19 49.29155 18.89581 29317 ft 410 kts 230°
2026-05-06 17:19 49.27307 18.86228 29701 ft 413 kts 230°
2026-05-06 17:20 49.25445 18.82855 30061 ft 416 kts 230°
2026-05-06 17:20 49.23574 18.79469 30379 ft 418 kts 230°
2026-05-06 17:20 49.21709 18.76099 30706 ft 420 kts 230°
2026-05-06 17:20 49.19811 18.72673 31033 ft 422 kts 230°
2026-05-06 17:21 49.17908 18.69241 31357 ft 425 kts 231°
2026-05-06 17:21 49.15988 18.65785 31669 ft 427 kts 231°
2026-05-06 17:21 49.14058 18.62315 32007 ft 429 kts 231°
2026-05-06 17:21 49.12120 18.58837 32317 ft 430 kts 231°
2026-05-06 17:22 49.10176 18.55351 32647 ft 432 kts 231°
2026-05-06 17:22 49.08227 18.51861 33060 ft 431 kts 231°
2026-05-06 17:22 49.06282 18.48382 33525 ft 429 kts 231°
2026-05-06 17:22 49.04340 18.44913 33954 ft 428 kts 231°
2026-05-06 17:23 49.02434 18.41514 34312 ft 427 kts 231°
2026-05-06 17:23 49.00504 18.38076 34657 ft 426 kts 231°
2026-05-06 17:23 48.98580 18.34653 35002 ft 426 kts 231°
2026-05-06 17:23 48.96652 18.31226 35347 ft 425 kts 231°
2026-05-06 17:24 48.94721 18.27800 35675 ft 424 kts 231°
2026-05-06 17:24 48.92801 18.24397 35997 ft 424 kts 230°
2026-05-06 17:24 48.90881 18.21000 36319 ft 423 kts 230°
2026-05-06 17:24 48.88965 18.17613 36634 ft 422 kts 230°
2026-05-06 17:25 48.87049 18.14230 36920 ft 422 kts 230°
2026-05-06 17:25 48.85159 18.10898 37215 ft 421 kts 230°
2026-05-06 17:25 48.83245 18.07528 37482 ft 421 kts 230°
2026-05-06 17:25 48.81336 18.04170 37743 ft 421 kts 230°
2026-05-06 17:26 48.79413 18.00792 37835 ft 422 kts 230°
2026-05-06 17:26 48.75594 17.94097 37805 ft 418 kts 230°
2026-05-06 17:27 48.71780 17.87427 37800 ft 418 kts 230°
2026-05-06 17:27 48.67998 17.80830 37803 ft 418 kts 230°
2026-05-06 17:28 48.64179 17.74186 37798 ft 417 kts 230°
2026-05-06 17:28 48.60363 17.67563 37800 ft 417 kts 230°
2026-05-06 17:29 48.56570 17.60997 37801 ft 417 kts 230°
2026-05-06 17:29 48.52743 17.54388 37796 ft 417 kts 230°
2026-05-06 17:30 48.48923 17.47807 37792 ft 417 kts 230°
2026-05-06 17:30 48.45119 17.41271 37773 ft 417 kts 230°
2026-05-06 17:31 48.41294 17.34713 37773 ft 416 kts 230°
2026-05-06 17:31 48.37468 17.28173 37776 ft 416 kts 229°
2026-05-06 17:32 48.34281 17.22735 37779 ft 416 kts 229°
2026-05-06 17:32 48.30453 17.16220 37777 ft 416 kts 229°
2026-05-06 17:33 48.26617 17.09705 37770 ft 415 kts 229°
2026-05-06 17:33 48.22778 17.03204 37777 ft 416 kts 229°
2026-05-06 17:34 48.19354 16.97445 37771 ft 415 kts 227°
2026-05-06 17:34 48.14826 16.92087 37797 ft 417 kts 213°
2026-05-06 17:35 48.10092 16.87085 37770 ft 416 kts 219°
2026-05-06 17:35 48.05452 16.81835 37750 ft 417 kts 218°
2026-05-06 17:36 47.98479 16.74119 37755 ft 417 kts 218°
2026-05-06 17:36 47.93806 16.68976 37762 ft 417 kts 218°
2026-05-06 17:37 47.89129 16.63838 37757 ft 418 kts 218°
2026-05-06 17:37 47.84457 16.58718 37815 ft 412 kts 218°
2026-05-06 17:38 47.79920 16.53757 37796 ft 405 kts 217°
2026-05-06 17:38 47.75390 16.48815 37796 ft 403 kts 217°
2026-05-06 17:39 47.70862 16.43887 37797 ft 401 kts 217°
2026-05-06 17:39 47.66392 16.39031 37807 ft 399 kts 217°
2026-05-06 17:40 47.61921 16.34184 37807 ft 398 kts 217°
2026-05-06 17:40 47.57438 16.29337 37814 ft 399 kts 217°
2026-05-06 17:41 47.52954 16.24498 37806 ft 398 kts 217°
2026-05-06 17:41 47.48491 16.19692 37818 ft 399 kts 217°
2026-05-06 17:42 47.44003 16.14871 37827 ft 399 kts 217°
2026-05-06 17:42 47.39491 16.10033 37839 ft 400 kts 217°
2026-05-06 17:43 47.34970 16.05196 37840 ft 401 kts 217°
2026-05-06 17:43 47.30446 16.00367 37841 ft 402 kts 217°
2026-05-06 17:44 47.25932 15.95558 37847 ft 403 kts 217°
2026-05-06 17:44 47.21379 15.90720 37852 ft 403 kts 217°
2026-05-06 17:45 47.16821 15.85885 37850 ft 403 kts 217°
2026-05-06 17:45 47.12261 15.81059 37847 ft 404 kts 217°
2026-05-06 17:46 47.07730 15.76274 37842 ft 404 kts 217°
2026-05-06 17:46 47.03156 15.71455 37838 ft 404 kts 217°
2026-05-06 17:47 46.98586 15.66649 37837 ft 404 kts 217°
2026-05-06 17:47 46.94006 15.61843 37833 ft 404 kts 217°
2026-05-06 17:48 46.89457 15.57080 37835 ft 404 kts 217°
2026-05-06 17:48 46.84880 15.52299 37836 ft 404 kts 217°
2026-05-06 17:49 46.80294 15.47518 37844 ft 404 kts 217°
2026-05-06 17:49 46.75734 15.42774 37849 ft 405 kts 217°
2026-05-06 17:50 46.71144 15.38009 37859 ft 405 kts 217°
2026-05-06 17:50 46.66550 15.33250 37875 ft 405 kts 217°
2026-05-06 17:51 46.61968 15.28514 37425 ft 404 kts 217°
2026-05-06 17:51 46.59674 15.26146 37105 ft 405 kts 217°
2026-05-06 17:51 46.57373 15.23772 36781 ft 406 kts 217°
2026-05-06 17:52 46.55069 15.21400 36464 ft 406 kts 217°
2026-05-06 17:52 46.52761 15.19026 36146 ft 407 kts 217°
2026-05-06 17:52 46.50445 15.16646 35924 ft 407 kts 217°
2026-05-06 17:52 46.48135 15.14275 35884 ft 408 kts 217°
2026-05-06 17:53 46.43484 15.09508 35891 ft 409 kts 217°
2026-05-06 17:53 46.38833 15.04751 35895 ft 409 kts 217°
2026-05-06 17:54 46.34181 15.00003 35898 ft 409 kts 217°
2026-05-06 17:54 46.29558 14.95295 35905 ft 409 kts 217°
2026-05-06 17:55 46.24902 14.90563 35923 ft 409 kts 217°
2026-05-06 17:55 46.20247 14.85842 35908 ft 408 kts 217°
2026-05-06 17:56 46.15592 14.81131 35911 ft 409 kts 217°
2026-05-06 17:56 46.10931 14.76425 35917 ft 408 kts 217°
2026-05-06 17:57 46.06310 14.71768 35909 ft 408 kts 217°
2026-05-06 17:57 46.01675 14.67106 35910 ft 403 kts 217°
2026-05-06 17:58 45.97077 14.62492 35917 ft 403 kts 217°
2026-05-06 17:58 45.92476 14.57884 35918 ft 403 kts 217°
2026-05-06 17:59 45.87886 14.53296 35904 ft 402 kts 217°
2026-05-06 17:59 45.83290 14.48711 35916 ft 402 kts 217°
2026-05-06 18:00 45.78699 14.44142 35922 ft 401 kts 217°
2026-05-06 18:00 45.74105 14.39579 35926 ft 402 kts 217°
2026-05-06 18:01 45.69536 14.35046 35934 ft 402 kts 216°
2026-05-06 18:01 45.64927 14.30485 35940 ft 402 kts 216°
2026-05-06 18:02 45.60321 14.25936 35946 ft 402 kts 216°
2026-05-06 18:02 45.55742 14.21421 35939 ft 402 kts 216°
2026-05-06 18:03 45.51135 14.16889 35939 ft 401 kts 216°
2026-05-06 18:03 45.46493 14.12470 35944 ft 402 kts 212°
2026-05-06 18:04 45.41311 14.09412 35944 ft 405 kts 205°
2026-05-06 18:04 45.36201 14.06111 35949 ft 404 kts 207°
2026-05-06 18:05 45.31126 14.02810 35939 ft 403 kts 207°
2026-05-06 18:05 45.26004 13.99520 35941 ft 403 kts 207°
2026-05-06 18:06 45.20880 13.96238 35947 ft 403 kts 207°
2026-05-06 18:06 45.15771 13.92973 35940 ft 402 kts 207°
2026-05-06 18:07 45.10687 13.89730 35939 ft 402 kts 207°
2026-05-06 18:07 45.05585 13.86482 35942 ft 402 kts 207°
2026-05-06 18:08 45.00487 13.83243 35939 ft 401 kts 207°
2026-05-06 18:08 44.95385 13.80007 35938 ft 401 kts 207°
2026-05-06 18:09 44.90287 13.76781 35936 ft 401 kts 207°
2026-05-06 18:09 44.85231 13.73587 35937 ft 401 kts 207°
2026-05-06 18:10 44.80143 13.70380 35935 ft 400 kts 207°
2026-05-06 18:10 44.75056 13.67179 35936 ft 400 kts 207°
2026-05-06 18:11 44.70837 13.64529 35934 ft 399 kts 207°
2026-05-06 18:11 44.64902 13.60808 35931 ft 399 kts 207°
2026-05-06 18:12 44.59857 13.57652 35923 ft 399 kts 207°
2026-05-06 18:12 44.54781 13.54483 35925 ft 399 kts 207°
2026-05-06 18:13 44.49711 13.51312 35921 ft 398 kts 209°
2026-05-06 18:13 44.44873 13.47614 35925 ft 396 kts 212°
2026-05-06 18:14 44.40052 13.43944 35917 ft 396 kts 211°
2026-05-06 18:14 44.35192 13.40298 35918 ft 396 kts 211°
2026-05-06 18:15 44.30333 13.36663 35922 ft 395 kts 211°
2026-05-06 18:15 44.25514 13.33066 35920 ft 395 kts 211°
2026-05-06 18:16 44.20663 13.29451 35922 ft 395 kts 211°
2026-05-06 18:16 44.15844 13.25867 35920 ft 395 kts 211°
2026-05-06 18:17 44.10994 13.22267 35915 ft 395 kts 211°
2026-05-06 18:17 44.06146 13.18675 35915 ft 394 kts 211°
2026-05-06 18:18 44.01297 13.15089 35921 ft 394 kts 211°
2026-05-06 18:18 43.96485 13.11537 35915 ft 394 kts 211°
2026-05-06 18:19 43.91641 13.07968 35919 ft 394 kts 211°
2026-05-06 18:19 43.87602 13.04996 35918 ft 394 kts 211°
2026-05-06 18:20 43.82757 13.01439 35924 ft 394 kts 211°
2026-05-06 18:20 43.77920 12.97894 35911 ft 391 kts 211°
2026-05-06 18:21 43.75553 12.96162 35676 ft 380 kts 211°
2026-05-06 18:21 43.73247 12.94475 35179 ft 377 kts 211°
2026-05-06 18:21 43.70932 12.92784 34658 ft 376 kts 211°
2026-05-06 18:21 43.68628 12.91101 34156 ft 373 kts 211°
2026-05-06 18:22 43.66338 12.89430 33613 ft 371 kts 211°
2026-05-06 18:22 43.64060 12.87770 33073 ft 368 kts 211°
2026-05-06 18:22 43.61808 12.86131 32589 ft 366 kts 211°
2026-05-06 18:22 43.59560 12.84496 32097 ft 363 kts 211°
2026-05-06 18:23 43.57329 12.82873 31624 ft 360 kts 211°
2026-05-06 18:23 43.55122 12.81271 31150 ft 357 kts 211°
2026-05-06 18:23 43.52929 12.79680 30690 ft 355 kts 211°
2026-05-06 18:23 43.50774 12.78117 30245 ft 353 kts 211°
2026-05-06 18:24 43.48604 12.76545 29732 ft 351 kts 211°
2026-05-06 18:24 43.46442 12.74980 29250 ft 348 kts 210°
2026-05-06 18:24 43.44305 12.73433 28807 ft 345 kts 211°
2026-05-06 18:24 43.42203 12.71881 28346 ft 342 kts 213°
2026-05-06 18:25 43.40185 12.70142 27912 ft 339 kts 214°
2026-05-06 18:25 43.38218 12.68451 27544 ft 336 kts 214°
2026-05-06 18:25 43.36236 12.66765 27138 ft 333 kts 214°
2026-05-06 18:25 43.34268 12.65099 26739 ft 331 kts 214°
2026-05-06 18:26 43.32315 12.63452 26346 ft 328 kts 214°
2026-05-06 18:26 43.30370 12.61814 25949 ft 327 kts 214°
2026-05-06 18:26 43.28436 12.60187 25563 ft 325 kts 214°
2026-05-06 18:26 43.26514 12.58572 25185 ft 323 kts 214°
2026-05-06 18:27 43.24605 12.56969 24820 ft 321 kts 214°
2026-05-06 18:27 43.22691 12.55363 24430 ft 320 kts 214°
2026-05-06 18:27 43.20799 12.53777 24066 ft 319 kts 214°
2026-05-06 18:27 43.18931 12.52212 23694 ft 318 kts 214°
2026-05-06 18:28 43.17047 12.50634 23296 ft 317 kts 214°
2026-05-06 18:28 43.15172 12.49066 22883 ft 315 kts 214°
2026-05-06 18:28 43.13307 12.47508 22501 ft 312 kts 214°
2026-05-06 18:28 43.11463 12.45966 22147 ft 309 kts 214°
2026-05-06 18:29 43.09633 12.44438 21791 ft 307 kts 213°
2026-05-06 18:29 43.07814 12.42921 21437 ft 304 kts 213°
2026-05-06 18:29 43.06012 12.41419 21101 ft 301 kts 213°
2026-05-06 18:29 43.04230 12.39935 20757 ft 299 kts 213°
2026-05-06 18:30 43.02459 12.38460 20409 ft 297 kts 213°
2026-05-06 18:30 43.00710 12.37004 20087 ft 299 kts 213°
2026-05-06 18:30 42.98916 12.35512 19749 ft 302 kts 212°
2026-05-06 18:30 42.97119 12.34019 19412 ft 302 kts 212°
2026-05-06 18:31 42.95315 12.32542 19048 ft 303 kts 209°
2026-05-06 18:31 42.93343 12.31526 18718 ft 304 kts 191°
2026-05-06 18:31 42.91221 12.31506 18415 ft 307 kts 176°
2026-05-06 18:31 42.89103 12.31852 18065 ft 306 kts 179°
2026-05-06 18:32 42.86988 12.32062 17705 ft 305 kts 179°
2026-05-06 18:32 42.84876 12.32254 17359 ft 304 kts 179°
2026-05-06 18:32 42.82789 12.32434 17015 ft 303 kts 179°
2026-05-06 18:32 42.80686 12.32610 16683 ft 303 kts 179°
2026-05-06 18:33 42.78581 12.32784 16341 ft 303 kts 179°
2026-05-06 18:33 42.76475 12.32957 16009 ft 303 kts 179°
2026-05-06 18:33 42.74367 12.33129 15670 ft 303 kts 179°
2026-05-06 18:33 42.72262 12.33301 15331 ft 303 kts 179°
2026-05-06 18:34 42.70153 12.33474 14991 ft 303 kts 179°
2026-05-06 18:34 42.68047 12.33646 14651 ft 302 kts 179°
2026-05-06 18:34 42.65946 12.33818 14319 ft 302 kts 179°
2026-05-06 18:34 42.63849 12.33996 13978 ft 301 kts 177°
2026-05-06 18:35 42.61798 12.34586 13627 ft 304 kts 165°
2026-05-06 18:35 42.59799 12.35518 13251 ft 304 kts 163°
2026-05-06 18:35 42.57830 12.36455 12909 ft 302 kts 163°
2026-05-06 18:35 42.55853 12.37394 12589 ft 301 kts 163°
2026-05-06 18:36 42.53876 12.38331 12251 ft 299 kts 163°
2026-05-06 18:36 42.51915 12.39258 11938 ft 298 kts 163°
2026-05-06 18:36 42.49939 12.40177 11463 ft 301 kts 166°
2026-05-06 18:36 42.47880 12.40550 11036 ft 297 kts 187°
2026-05-06 18:37 42.45844 12.40226 10728 ft 294 kts 187°
2026-05-06 18:37 42.43806 12.40164 10430 ft 293 kts 181°
2026-05-06 18:37 42.41771 12.40217 10171 ft 289 kts 181°
2026-05-06 18:37 42.39787 12.40315 10002 ft 283 kts 180°
2026-05-06 18:38 42.37823 12.40433 9670 ft 282 kts 180°
2026-05-06 18:38 42.35874 12.40563 9341 ft 280 kts 179°
2026-05-06 18:38 42.33933 12.40704 9026 ft 278 kts 179°
2026-05-06 18:38 42.32028 12.40848 8718 ft 276 kts 179°
2026-05-06 18:39 42.30857 12.40938 8530 ft 275 kts 179°
2026-05-06 18:39 42.29040 12.41079 8233 ft 273 kts 179°
2026-05-06 18:39 42.27148 12.41225 7935 ft 270 kts 178°
2026-05-06 18:40 42.23421 12.41515 7339 ft 266 kts 178°
2026-05-06 18:40 42.21574 12.41658 7030 ft 265 kts 178°
2026-05-06 18:40 42.19739 12.41801 6735 ft 263 kts 178°
2026-05-06 18:40 42.17911 12.41942 6448 ft 262 kts 178°
2026-05-06 18:41 42.16097 12.42084 6129 ft 261 kts 178°
2026-05-06 18:41 42.14283 12.42224 5822 ft 259 kts 178°
2026-05-06 18:41 42.12508 12.42361 5528 ft 253 kts 177°
2026-05-06 18:41 42.10784 12.42494 5244 ft 247 kts 177°
2026-05-06 18:42 42.09092 12.42624 4975 ft 240 kts 177°
2026-05-06 18:42 42.07448 12.42751 4713 ft 233 kts 177°
2026-05-06 18:42 42.05839 12.42876 4509 ft 228 kts 176°
2026-05-06 18:42 42.04302 12.43223 4380 ft 218 kts 165°
2026-05-06 18:43 42.02914 12.43855 4266 ft 204 kts 159°
2026-05-06 18:43 42.01641 12.44580 4121 ft 192 kts 157°
2026-05-06 18:43 42.00462 12.45315 3997 ft 183 kts 156°
2026-05-06 18:43 41.99330 12.46057 3899 ft 180 kts 156°
2026-05-06 18:44 41.98230 12.46797 3792 ft 178 kts 155°
2026-05-06 18:44 41.97125 12.47553 3666 ft 178 kts 154°
2026-05-06 18:44 41.96023 12.48315 3548 ft 178 kts 154°
2026-05-06 18:44 41.94923 12.49078 3382 ft 178 kts 154°
2026-05-06 18:45 41.93825 12.49841 3168 ft 177 kts 154°
2026-05-06 18:45 41.92732 12.50602 2953 ft 176 kts 154°
2026-05-06 18:45 41.91659 12.51349 2728 ft 171 kts 155°
2026-05-06 18:45 41.90642 12.52058 2533 ft 155 kts 155°
2026-05-06 18:46 41.89717 12.52698 2339 ft 142 kts 154°
2026-05-06 18:46 41.88862 12.53292 2155 ft 136 kts 155°
2026-05-06 18:46 41.88030 12.53869 1969 ft 133 kts 155°
2026-05-06 18:46 41.87210 12.54438 1794 ft 132 kts 155°
2026-05-06 18:47 41.86396 12.55002 1612 ft 131 kts 154°
2026-05-06 18:47 41.85594 12.55555 1433 ft 132 kts 154°
2026-05-06 18:47 41.84768 12.56130 1254 ft 134 kts 154°
2026-05-06 18:47 41.83933 12.56690 1078 ft 136 kts 156°
2026-05-06 18:48 41.83072 12.57255 945 ft 138 kts 153°
2026-05-06 18:48 41.82225 12.57870 697 ft 138 kts 152°
2026-05-06 18:48 41.81384 12.58473 521 ft 137 kts 154°
2026-05-06 18:48 41.80544 12.59065 372 ft 132 kts 152°
2026-05-06 18:49 41.79886 12.59517 397 ft 71 kts 153°
2026-05-06 18:49 41.79495 12.59791 408 ft 61 kts 152°
2026-05-06 18:49 41.79256 12.59953 423 ft 27 kts 153°
2026-05-06 18:49 41.79096 12.60057 428 ft 18 kts 163°
2026-05-06 18:50 41.79032 12.59987 429 ft 13 kts 248°
2026-05-06 18:50 41.79065 12.59881 426 ft 16 kts 334°
2026-05-06 18:50 41.79178 12.59805 426 ft 21 kts 328°
2026-05-06 18:50 41.79291 12.59723 414 ft 16 kts 338°
2026-05-06 18:51 41.79408 12.59643 415 ft 21 kts 333°
2026-05-06 18:51 41.79561 12.59537 407 ft 28 kts 332°
2026-05-06 18:51 41.79745 12.59412 397 ft 32 kts 334°
2026-05-06 18:51 41.79933 12.59282 393 ft 25 kts 333°
2026-05-06 18:52 41.80029 12.59192 387 ft 11 kts 271°
2026-05-06 18:52 41.80030 12.59125 385 ft 0 kts 268°